Weather History for Philip, SD

Change the Weather History Date:

Saturday, March 22, 2014

  Actual Average Record
Temperature  
Mean Temperature 22 °F 37 °F  
Max Temperature 28 °F 50 °F 79 °F (2009)
Min Temperature 15 °F 24 °F -6 °F (1965)
Degree Days  
Heating Degree Days 43 28  
Month to date heating degree days 712 703  
Since 1 July heating degree days 6315 6068  
Cooling Degree Days 0 0  
Month to date cooling degree days 0 0  
Year to date cooling degree days 0 0  
Moisture  
Dew Point 10 °F    
Average Humidity 60    
Maximum Humidity 74    
Minimum Humidity 46    
Precipitation  
Precipitation 0.01 in 0.04 in 1.03 in (1973)
Month to date precipitation 0.45 0.91  
Year to date precipitation 0.93 1.69  
Sea Level Pressure  
Sea Level Pressure 30.51 in    
Wind  
Wind Speed 9 mph (North)    
Max Wind Speed 17 mph    
Max Gust Speed 23 mph    
Visibility 7 miles    
Events Snow    
T = Trace of Precipitation, MM = Missing Value Source: NWS Daily Summary

Daily Weather History Graph

Daily Weather History Graph

Search for Another Location

Airport:

Trip Planner

Search our weather history database for the weather conditions in past years. The results will help you decide how hot, cold, wet, or windy it might be!

Date:

Astronomy

Mar. 22, 2014 Rise Set
Actual Time 6:45 AM MDT 7:01 PM MDT
Civil Twilight 6:17 AM MDT 7:30 PM MDT
Nautical Twilight 5:43 AM MDT 8:04 PM MDT
Astronomical Twilight 5:08 AM MDT 8:39 PM MDT
Moon 12:32 AM MDT (3/22) 10:20 AM MDT (3/22)
Length of Visible Light 13h 13m
Length of Day
12h 15m
Waning Gibbous, 65% of the Moon is Illuminated
Mar 22
Waning Gibbous
Mar 23
Last Quarter
Mar 30
New
Apr 7
First Quarter
Apr 15
Full

Hourly Weather History & Observations

Time (MDT) Temp. Windchill Dew Point Humidity Pressure Visibility Wind Dir Wind Speed Gust Speed Precip Events Conditions
12:55 AM 21.9 °F 10.4 °F 12.0 °F 66% 30.44 in 10.0 mi NE 11.5 mph - N/A   Overcast
1:55 AM 21.0 °F 8.6 °F 12.0 °F 68% 30.44 in 10.0 mi NNE 12.7 mph - N/A   Overcast
2:55 AM 19.9 °F 6.7 °F 10.0 °F 65% 30.45 in 10.0 mi NNE 13.8 mph - N/A   Overcast
3:55 AM 18.0 °F 6.1 °F 10.0 °F 71% 30.47 in 10.0 mi NE 10.4 mph - N/A   Overcast
4:55 AM 18.0 °F - 10.0 °F 71% 30.49 in 10.0 mi Calm Calm - N/A   Overcast
5:55 AM 17.1 °F 6.6 °F 10.0 °F 74% 30.50 in 10.0 mi NNE 8.1 mph - N/A   Overcast
6:55 AM 17.1 °F 5.8 °F 10.0 °F 74% 30.51 in 8.0 mi NE 9.2 mph - 0.00 in Snow Light Snow
7:09 AM 17.6 °F 6.4 °F 10.4 °F 73% 30.43 in 9.0 mi NE 9.2 mph - 0.00 in   Overcast
7:23 AM 17.6 °F 7.3 °F 8.6 °F 68% 30.43 in 10.0 mi NE 8.1 mph - 0.00 in   Overcast
7:55 AM 18.0 °F 7.7 °F 9.0 °F 68% 30.53 in 8.0 mi NNE 8.1 mph - 0.00 in Snow Light Snow
8:46 AM 17.6 °F 7.3 °F 8.6 °F 68% 30.47 in 8.0 mi NE 8.1 mph - 0.00 in   Overcast
8:55 AM 18.0 °F 9.8 °F 9.0 °F 68% 30.56 in 4.0 mi NNE 5.8 mph - 0.00 in Snow Light Snow
9:13 AM 17.6 °F 7.3 °F 8.6 °F 68% 30.48 in 1.8 mi NNE 8.1 mph - 0.00 in Snow Light Snow
9:55 AM 18.0 °F 9.8 °F 10.9 °F 74% 30.58 in 1.5 mi NNE 5.8 mph - 0.00 in Snow Light Snow
10:07 AM 17.6 °F 8.2 °F 10.4 °F 73% 30.49 in 2.5 mi North 6.9 mph - 0.00 in Snow Light Snow
10:13 AM 19.4 °F 10.4 °F 10.4 °F 68% 30.48 in 3.0 mi North 6.9 mph - 0.00 in Snow Light Snow
10:23 AM 19.4 °F 10.4 °F 10.4 °F 68% 30.49 in 2.0 mi NNW 6.9 mph - 0.00 in Snow Light Snow
10:34 AM 19.4 °F 9.5 °F 10.4 °F 68% 30.49 in 1.8 mi North 8.1 mph - 0.01 in Snow Light Snow
10:46 AM 19.4 °F 9.5 °F 10.4 °F 68% 30.49 in 3.0 mi NNW 8.1 mph - 0.01 in Snow Light Snow
10:53 AM 19.4 °F 9.5 °F 12.2 °F 74% 30.49 in 1.8 mi North 8.1 mph - 0.01 in Snow Light Snow
10:55 AM 19.0 °F 10.0 °F 12.0 °F 74% 30.58 in 1.8 mi North 6.9 mph - 0.01 in Snow Light Snow
11:07 AM 19.4 °F 10.4 °F 10.4 °F 68% 30.49 in 2.0 mi North 6.9 mph - 0.00 in Snow Light Snow
11:21 AM 19.4 °F 12.8 °F 10.4 °F 68% 30.49 in 5.0 mi North 4.6 mph - 0.00 in Snow Light Snow
11:38 AM 19.4 °F 10.4 °F 12.2 °F 74% 30.48 in 5.0 mi NW 6.9 mph - 0.00 in Snow Light Snow
11:47 AM 21.2 °F 10.1 °F 10.4 °F 63% 30.48 in 4.0 mi NNW 10.4 mph - 0.00 in Snow Light Snow
11:55 AM 21.0 °F 9.9 °F 10.9 °F 65% 30.57 in 3.0 mi NNW 10.4 mph - 0.00 in Snow Light Snow
12:27 PM 21.2 °F 11.7 °F 10.4 °F 63% 30.47 in 8.0 mi NNW 8.1 mph - 0.00 in Snow Light Snow
12:55 PM 23.0 °F 11.1 °F 9.0 °F 55% 30.56 in 10.0 mi North 12.7 mph - 0.00 in   Overcast
1:55 PM 25.0 °F 14.2 °F 7.0 °F 46% 30.54 in 10.0 mi North 11.5 mph 19.6 mph N/A   Overcast
2:55 PM 27.0 °F 14.7 °F 8.1 °F 45% 30.53 in 10.0 mi North 16.1 mph 19.6 mph N/A   Overcast
3:55 PM 26.1 °F 14.5 °F 8.1 °F 47% 30.54 in 10.0 mi NNW 13.8 mph 18.4 mph N/A   Overcast
4:55 PM 25.0 °F 14.2 °F 8.1 °F 49% 30.54 in 10.0 mi North 11.5 mph 19.6 mph N/A   Overcast
5:55 PM 24.1 °F 11.0 °F 8.1 °F 51% 30.56 in 10.0 mi North 16.1 mph - N/A   Overcast
6:55 PM 21.9 °F 10.4 °F 8.1 °F 55% 30.56 in 10.0 mi North 11.5 mph - N/A   Mostly Cloudy
7:55 PM 18.0 °F 11.1 °F 8.1 °F 65% 30.58 in 10.0 mi North 4.6 mph - N/A   Scattered Clouds
8:55 PM 16.0 °F 7.4 °F 9.0 °F 74% 30.58 in 10.0 mi NNW 5.8 mph - N/A   Clear
9:55 PM 18.0 °F 11.1 °F 10.0 °F 71% 30.59 in 10.0 mi West 4.6 mph - N/A   Overcast
10:55 PM 19.0 °F 12.3 °F 10.0 °F 68% 30.58 in 10.0 mi West 4.6 mph - N/A   Overcast
11:55 PM 18.0 °F 12.7 °F 10.9 °F 74% 30.57 in 10.0 mi West 3.5 mph - N/A   Overcast